Flag for Guadeloupe Weather past 2 weeks in Pointe-à-Pitre, Guadeloupe

Now
77 °F

Passing clouds.


Feels Like: 79 °F
Forecast: 77 / 81 °F
Wind: 7 mph from East

Location: Le Raizet - Guadeloupe

Current Time: Feb 27, 2015 at 8:03:40 AM

Latest Report: Feb 27, 2015 at 7:30 AM


Visibility: N/A

Pressure: 30.07 "Hg

Humidity: 61%

Dew point: 63 °F

Location of Pointe-à-PitreLocation

Historic Weather in Pointe-à-Pitre — Graph

°F

Pointe-à-Pitre temperature yesterday

Maximum temperature yesterday: 84 °F (at 2:30 PM)
Minimum temperature yesterday: 73 °F (at 12:00 AM)
Average temperature yesterday: 77 °F

Past Weeks' High & Low Weather Summary

 TemperatureHumidityPressure
High86 °F (Feb 12, 1:00 PM)100% (Feb 12, 7:00 AM)30.09 "Hg (Feb 12, 7:00 AM)
Low68 °F (Feb 16, 4:00 AM)43% (Feb 19, 2:04 PM)29.92 "Hg (Feb 12, 3:10 PM)
Average77 °F73%30.01 "Hg
* Reported Feb 12 7:00 AM — Feb 27 7:00 AM, Pointe-à-Pitre, Weather by CustomWeather, © 2015

Note: Actual official high and low records may vary slightly from our data, if they occured in-between our weather recording intervals... More about our weather records

Advertising

Pointe-à-Pitre weather history for previous 24 hours

 ConditionsComfort  
Time TempWeatherWind HumidityBarometerVisibility
7:00 AM
Fri, Feb 27
75 °FClear.8 mph65%30.07 "HgN/A
6:30 AM75 °FClear.6 mph69%30.04 "HgN/A
6:00 AM75 °FClear.5 mph69%30.04 "HgN/A
5:30 AM75 °FClear.7 mph74%30.04 "HgN/A
5:00 AM75 °FMild.6 mph74%30.04 "HgN/A
4:30 AM73 °FPassing clouds.2 mph78%30.04 "HgN/A
4:00 AM73 °FPartly cloudy.1 mph78%30.04 "HgN/A
3:30 AM73 °FPassing clouds.5 mph74%30.01 "HgN/A
3:00 AM73 °FClear.5 mph74%30.04 "HgN/A
2:30 AM73 °FClear.6 mph78%30.04 "HgN/A
2:00 AM75 °FPassing clouds.8 mph74%30.04 "HgN/A
1:30 AM75 °FClear.8 mph74%30.04 "HgN/A
1:00 AM75 °FMostly cloudy.8 mph69%30.04 "HgN/A
12:30 AM75 °FMostly cloudy.9 mph69%30.07 "HgN/A
11:30 PM
Thu, Feb 26
75 °FClear.10 mph69%30.07 "HgN/A
11:00 PM75 °FClear.8 mph69%30.07 "HgN/A
10:30 PM75 °FClear.10 mph69%30.07 "HgN/A
10:00 PM75 °FPassing clouds.8 mph69%30.07 "HgN/A
9:30 PM75 °FClear.7 mph69%30.04 "HgN/A
9:00 PM75 °FPassing clouds.6 mph69%30.04 "HgN/A
8:30 PM75 °FPartly cloudy.5 mph69%30.04 "HgN/A
8:00 PM75 °FClear.5 mph69%30.04 "HgN/A
7:30 PM77 °FClear.8 mph65%30.04 "HgN/A
7:00 PM77 °FPassing clouds.8 mph65%30.01 "HgN/A
6:30 PM77 °FPassing clouds.10 mph65%30.01 "HgN/A
6:00 PM79 °FPassing clouds.12 mph61%30.01 "HgN/A
5:00 PM81 °FPassing clouds.18 mph58%29.98 "HgN/A
4:30 PM82 °FPassing clouds.18 mph55%29.98 "HgN/A
4:00 PM82 °FPassing clouds.14 mph51%29.98 "HgN/A
3:30 PM81 °FPassing clouds.18 mph58%29.98 "HgN/A
3:00 PM82 °FScattered clouds.16 mph55%29.98 "HgN/A
2:30 PM84 °FScattered clouds.17 mph48%29.98 "HgN/A
2:00 PM82 °FScattered clouds.17 mph55%30.01 "HgN/A
1:30 PM82 °FScattered clouds.15 mph51%30.01 "HgN/A
1:00 PM79 °FSprinkles. Broken clouds.17 mph61%30.04 "HgN/A
12:00 PM81 °FPartly sunny.18 mph58%30.04 "HgN/A
11:30 AM81 °FPartly sunny.16 mph58%30.07 "HgN/A
11:00 AM79 °FPartly sunny.20 mph65%30.07 "HgN/A
10:30 AM81 °FPartly sunny.16 mph62%30.09 "HgN/A
10:00 AM77 °FScattered clouds.13 mph79%30.09 "HgN/A
9:30 AM79 °FPartly sunny.9 mph70%30.09 "HgN/A
9:00 AM73 °FBroken clouds.15 mph83%30.09 "HgN/A
8:30 AM77 °FRain showers. Scattered clouds.9 mph69%30.07 "HgN/A
8:00 AM75 °FSprinkles. Partly sunny.13 mph74%30.07 "Hg3 mi
Weather by CustomWeather, © 2015

See weather overviewHow to use our weather pages